Tracking 25612 objects as of 20-May-2022
HD Live streaming from Space Station
objects crossing your sky now

SL-6 R/B(2)

Track SL-6 R/B(2) now!


NORAD ID: 12311
Int'l Code: 1981-016E
Perigee: 3,718.4 km
Apogee: 35,946.8 km
Inclination: 68.4 °
Period: 703.6 minutes
Semi major axis: 26203 km
RCS: 5.1304 m2 (large)
Launch date: February 19, 1981
Source: Commonwealth of Independent States (former USSR) (CIS)
Launch site: PLESETSK MISSILE AND SPACE COMPLEX (PKMTR)

Note: This is a ROCKET BODY
aabbcc
Your satellite tracking list
Your tracking list is empty




NASA's NSSDC Master Catalog

Two Line Element Set (TLE):
1 12311U 81016E   22139.04312461  .00000127  00000-0  00000-0 0  9992
2 12311  68.4398 113.1736 6149615   2.1394 359.4211  2.04673282308315
Source of the keplerian elements: AFSPC